Back to catalog

STARLINK-3680

AliveCommunicationsVLEO
NORAD 51969·PAYLOAD·🇺🇸 United States

Launched Mar 9, 2022 from Cape Canaveral Space Force Station

Loading…

Next Passes (next 24 hours)

TLE

FreshSource: CelesTrak SupGP

Epoch: Sep 14, 2026, 12:42 UTC

1 51969C 22025P   26257.52965278 -.00032254  00000+0 -10372-2 0  2576
2 51969  53.1571 225.5080 0001187  87.1282 223.5254 15.31716728    16

Track STARLINK-3680 in real time with AllMySat

Download on the App Store